Flag for Vanuatu Weather past 2 weeks in Port Vila, Vanuatu

Now
86 °F

Scattered clouds.


Feels Like: 99 °F
Forecast: 82 / 88 °F
Wind: 7 mph from Northeast

Location: Bauerfield Efate

Current Time: Mar 5, 2015 at 9:47:38 AM

Latest Report: Mar 5, 2015 at 9:00 AM


Visibility: N/A

Pressure: 29.71 "Hg

Humidity: 79%

Dew point: 79 °F

Location of Port VilaLocation

Historic Weather in Port Vila — Graph

°F

Port Vila temperature yesterday

Maximum temperature yesterday: 90 °F (at 11:00 AM)
Minimum temperature yesterday: 75 °F (at 2:00 AM)
Average temperature yesterday: 82 °F

Past Weeks' High & Low Weather Summary

 TemperatureHumidityPressure
High91 °F (Feb 18, 12:00 PM)100% (Feb 19, 5:00 AM)29.89 "Hg (Feb 19, 5:00 AM)
Low75 °F (Feb 20, 5:00 AM)66% (Feb 22, 10:00 AM)29.62 "Hg (Feb 25, 1:00 PM)
Average81 °F88%29.73 "Hg
* Reported Feb 18 8:00 AM — Mar 5 8:00 AM, Port Vila, Weather by CustomWeather, © 2015

Note: Actual official high and low records may vary slightly from our data, if they occured in-between our weather recording intervals... More about our weather records

Advertising

Port Vila weather history for previous 24 hours

 ConditionsComfort  
Time TempWeatherWind HumidityBarometerVisibility
8:00 AM
Thu, Mar 5
84 °FScattered clouds.6 mph84%29.68 "HgN/A
7:00 AM79 °FPassing clouds.No wind100%29.68 "HgN/A
6:00 AM77 °FPassing clouds.No wind94%29.68 "HgN/A
5:00 AM77 °FPassing clouds.No wind94%29.68 "HgN/A
4:00 AM77 °FPassing clouds.No wind100%29.68 "HgN/A
3:00 AM77 °FPassing clouds.No wind94%29.68 "HgN/A
2:00 AM77 °FPassing clouds.No wind94%29.71 "HgN/A
1:00 AM77 °FPassing clouds.No wind94%29.71 "HgN/A
12:00 AM77 °FPassing clouds.No wind94%29.74 "HgN/A
11:00 PM
Wed, Mar 4
79 °FPassing clouds.No wind94%29.77 "HgN/A
10:00 PM79 °FPassing clouds.No wind94%29.77 "HgN/A
9:00 PM79 °FPassing clouds.2 mph94%29.77 "HgN/A
8:00 PM81 °FPassing clouds.No wind89%29.77 "HgN/A
7:00 PM82 °FPassing clouds.No wind89%29.74 "HgN/A
6:00 PM86 °FScattered clouds.8 mph75%29.71 "HgN/A
5:00 PM86 °FScattered clouds.8 mph79%29.68 "HgN/A
4:00 PM88 °FScattered clouds.8 mph79%29.68 "HgN/A
3:00 PM90 °FScattered clouds.10 mph75%29.71 "HgN/A
2:00 PM90 °FScattered clouds.10 mph71%29.71 "HgN/A
1:00 PM90 °FScattered clouds.9 mph67%29.71 "HgN/A
12:00 PM90 °FScattered clouds.8 mph67%29.74 "HgN/A
11:00 AM90 °FScattered clouds.8 mph67%29.74 "HgN/A
10:00 AM88 °FScattered clouds.8 mph79%29.77 "HgN/A
Weather by CustomWeather, © 2015

See weather overviewHow to use our weather pages